Location: Zagreb
(45.8000°N, 16.0000°E)
Time: 08:39:43
(UTC+02:00)

Courier 1B - Pass Details

Date: 10 August 2020
Orbit: 962 x 1209 km, 28.3° (Epoch: 27 September)

Event Time Altitude Azimuth Distance (km) Brightness Sun altitude
Rises 19:04:05 0° 213° (SSW) 3,983 11.0 10.4°
Reaches altitude 10° 19:08:58 10° 186° (S) 2,965 10.0 9.6°
Maximum altitude 19:11:42 12° 163° (SSE) 2,751 9.6 9.1°
Drops below altitude 10° 19:14:24 10° 141° (SE) 2,895 9.5 8.6°
Sets 19:19:00 0° 113° (ESE) 3,789 9.9 7.9°
